If you wish to contribute or participate in the discussions about articles you are invited to join SKYbrary as a registered user

 Actions

Pontoise - Cormeilles-en-Vexin Airport

From SKYbrary Wiki

LFPT
Airport
ICAO: LFPT – IATA: POX
Summary
Name Pontoise - Cormeilles-en-Vexin Airport
Region Europe
Territory France FR.gif
Location , Ile-de-France
Serving Pontoise
Elevation 99.06 m
325 ft
325 ft99.06 m
Type medium airport
Coordinates 49° 5' 47.93" N, 2° 2' 27.00" E
Runways
Designator Length Width Surface ROPS
5/23 1689 m5,541.339 ft
50 m164.042 ft
ASP yes/yes
12/30 1650 m5,413.386 ft
50 m164.042 ft
ASP yes/yes


METAR
Observation LFPT 190400Z AUTO 33007KT CAVOK 00/M01 Q1036
Station Pontoise - Cormeilles-en-Vexin
Date/Time 19 January 2020 04:00:00
Wind direction 330°
Wind speed 07 kts
Lowest cloud amount clouds and visibility OK
Temperature 0°C
Dew point
Humidity 92%
QNH 1036 hPa
Weather condition n/a